User: anonymous   Login
Location: ??
(35.4032°N, 139.3073°E)
Time: 03:04:09
(UTC+00:00)
Language:

ALOS - Orbit

View from above orbital plane
View from above orbital plane
View from above satellite
View from above satellite

Ground track
Ground track

The orbit data is extracted from the following two-line orbital elements,

1 28931U 06002A   24164.92482754  .00002481  00000-0  46321-3 0  9993
2 28931  98.0364 118.0739 0002166 113.0298 247.1135 14.65816787980354
Epoch (UTC): 12 June 2024 22:11:45
Eccentricity: 0.0002166
inclination: 98.0364°
perigee height: 673 km
apogee height: 676 km
right ascension of ascending node: 118.0739°
argument of perigee: 113.0298°
revolutions per day: 14.65816787
mean anomaly at epoch: 247.1135°
orbit number at epoch: 98035

The dashed part of the orbit path shows where the satellite is in the earth's shadow,  

DLR